Showing default

OV1-2, 1613

Orbit data source: Space-Track

OV1-2, 1613 is a payload satellite owned by USAF OAR (US) in LEO that was launched on Tue, 05 Oct 1965 UTC via an ATLAS D launch vehicle from the Air Force Western Test Range (AFWTR). Payloads include a variety of satellites, spacecraft, and rockets equipped with specific instruments for various scientific and technological missions. These include communications satellites like Starlink; space stations such as the ISS; scientific satellites like the Hubble; Earth observation satellites from companies like Planet Labs, Umbra, and HawkEye 360; GPS; miniature CubeSats for education and research; and military/defense satellites.

Loading next visibility...
OV1-2 details
Identifier
1613, 1965-078A
Orbit
LEO
Last TLE update12 hours ago
Origin
Flag of USUSAF OAR (US)
ManufacturerGD/Convair
MissionCivil Science
Bus & MotorOV1, Unknown motor
Mass86 kg wet, 86 kg dry
Launch date (UTC)
1965-10-05 (59 years ago)
Launch vehicle
ATLAS D
Launch site
Air Force Western Test Range (AFWTR)
Object type
Payload
Rocket body
Debris
Shape & HBRDomed Cyl, 1.4 m
Radar Cross Section0.946 m², Medium (>0.1 m² and < 1m²)

Expand to show TLE details & history

TLE from 12 hours ago
0 OV1-2
1  1613U 65078A   25036.10152550  .00006110  00000-0  59833-3 0  9991
2  1613 144.2311 346.3369 1154753 147.1937 220.5915 12.95097699650070
Epoch: 2025-02-05T02:26Z
Definitive object data (Epoch: 2025-02-05T02:26:11.803Z)
Latitude0.00002°
Longitude174.2904°
Altitude1,989.89 km
Speed6.578 km/s
True Right ascension23h 05m 20s
True Declination0° 00' 00"
Sunlit
Object was in daylight at TLE epoch
Visualization TLE readout
Latitude23.16887°
Longitude32.64644°
Altitude412.213 km
Speed8.089 km/s
Apparent Right ascension10h 12m 11s
Apparent Declination-19° 35' 32"
Sunlit
Object is in full shadow
Visualization observer readout
Local Sidereal Time16:16:49
Azimuth255.421° W
Elevation-13.283°
Doppler factor1
Orbital elements
Apogee altitude2,169.037 km
Perigee altitude399.411 km
Semi-major axis7,662.361 km
Eccentricity0.1154753
Inclination144.2311°
RAAN346.3369°
Arg. of periapsis147.1937°
True anomaly212.85814°
Mean anomaly220.5915°
Eccentric anomaly216.64277°
Mean motion3.23593 °/min
BSTAR0.00059833
Orbital period111.25 mins
Loading maneuver chart data...
Loading historical data...
Loading historical data...
Loading historical data...
Loading historical data...
Loading historical data...
Loading historical data...
Loading historical data...
Other satellites on launch #78 in the year 1965 (1965-10-05 UTC)

OV1-2 Visibility forecast

Observer location: undefined°, undefined

Span
Click to sort rows by Start time (UTC) header in descending order
Start Az.
Max El. time (UTC)
Max El. Az.
Max El.
End time (UTC)
End Az.
10 mins2025-02-05 15:44:22.473Z105.811° ESE2025-02-05 15:50:22.473Z194.068° SSW39.589°2025-02-05 15:54:22.473Z261.095° W
11 mins2025-02-05 17:29:22.473Z130.556° SE2025-02-05 17:35:22.473Z195.068° SSW33.876°2025-02-05 17:40:22.473Z263.481° W
11 mins2025-02-05 19:14:22.473Z160.413° S2025-02-05 19:20:22.473Z206.907° SW22.183°2025-02-05 19:25:22.473Z253.361° W
6 mins2025-02-06 14:05:22.473Z100.783° ESE2025-02-06 14:08:22.473Z151.579° SSE34.268°2025-02-06 14:11:22.473Z232.412° WSW
|